Location: Aytr�
(46.1357°N, 1.1145°W)
Time: 07:21:50
(UTC+00:00)

Cosmos 2333 - Pass Details

Date: 03 March 2021
Orbit: 829 x 866 km, 70.9° (Epoch: 18 April)

Event Time Altitude Azimuth Distance (km) Brightness Sun altitude
Rises 20:12:50 0° 212° (SSW) 3,374 7.5 -24.6°
Reaches altitude 10° 20:15:17 10° 215° (SW) 2,448 6.8 -25.0°
Maximum altitude 20:20:53 69° 299° (WNW) 907 4.4 -26.0°
Drops below altitude 10° 20:26:35 10° 23° (NNE) 2,489 6.6 -26.9°
Sets 20:29:05 0° 26° (NNE) 3,435 7.3 -27.3°
